M8FSI-13 Weather Reports


Display with metric or nautical units.
time (UTC)temp
F
wind
direction
speed
MPH
gust
MPH
rain 1hr
in
rain 24hr
in
rain mn
in
humidity
%
barometer
mb
20260507063534 51 90 3.0 5.0 0.00 0.00 0.00 78 1016.6
20260507062533 51 90 3.0 4.0 0.00 0.00 0.00 78 1016.6
20260507061539 50 68 2.0 4.0 0.00 0.00 0.00 80 1016.5
20260507060548 50 68 1.0 3.0 0.00 0.00 0.00 81 1016.6
20260507055533 49 68 1.0 3.0 0.00 0.00 0.00 81 1016.4
20260507054544 48 0.0 1.0 0.00 0.00 0.00 82 1016.4
20260507053519 47 68 1.0 1.0 0.00 0.00 0.00 83 1016.4
20260507052541 46 0.0 1.0 0.00 0.00 0.00 85 1016.3
20260507051520 45 90 1.0 2.0 0.00 0.00 0.00 85 1016.3
20260507050518 45 0.0 1.0 0.00 0.00 0.00 87 1016.2
20260507045518 44 0.0 1.0 0.00 0.00 0.00 87 1016.1
20260507044520 44 0.0 1.0 0.00 0.00 0.00 87 1016.2
20260507043540 44 0.0 0.0 0.00 0.00 0.00 86 1016.1
20260507042518 44 0.0 1.0 0.00 0.00 0.00 86 1016.1
20260507041519 44 0.0 1.0 0.00 0.00 0.00 86 1016.1
20260507040520 44 0.0 1.0 0.00 0.00 0.00 85 1016.1
20260507035558 44 0.0 1.0 0.00 0.00 0.00 85 1016.1
20260507034518 44 0.0 1.0 0.00 0.00 0.00 85 1016.1
20260507033535 44 0.0 1.0 0.00 0.00 0.00 85 1016.1
20260507032520 44 0.0 1.0 0.00 0.00 0.00 84 1016.0
20260507031614 44 0.0 1.0 0.00 0.00 0.00 84 1016.0
20260507030554 44 0.0 1.0 0.00 0.00 0.00 84 1016.0
20260507025533 44 0.0 1.0 0.00 0.00 0.00 84 1015.9
20260507024538 44 0.0 2.0 0.00 0.00 0.00 84 1015.9
20260507023548 44 0.0 1.0 0.00 0.00 0.00 85 1015.9
20260507022520 44 0.0 1.0 0.00 0.00 0.00 84 1015.8
20260507021520 45 0.0 1.0 0.00 0.00 0.00 85 1015.8
20260507020520 45 0.0 1.0 0.00 0.00 0.00 84 1015.7
20260507015549 45 0.0 1.0 0.00 0.00 0.00 85 1015.7
20260507014520 45 0.0 1.0 0.00 0.00 0.00 84 1015.6
20260507013519 45 0.0 1.0 0.00 0.00 0.00 84 1015.7
20260507012557 45 0.0 0.0 0.00 0.00 0.00 84 1015.7
20260507011518 45 0.0 0.0 0.00 0.00 0.00 83 1015.8
20260507010540 45 0.0 0.0 0.00 0.00 0.00 82 1015.8
20260507005518 46 0.0 1.0 0.00 0.00 0.00 82 1015.8
20260507004535 46 0.0 1.0 0.00 0.00 0.00 82 1015.7
20260507003519 46 0.0 1.0 0.00 0.00 0.00 81 1015.7
20260507002535 46 0.0 1.0 0.00 0.00 0.00 81 1015.7
20260507001539 47 0.0 1.0 0.00 0.00 0.00 80 1015.8
20260507000518 47 0.0 1.0 0.00 0.00 0.00 80 1015.9
20260506235518 47 0.0 1.0 0.00 0.00 0.00 79 1015.9
20260506234523 48 0.0 1.0 0.00 0.00 0.00 78 1015.8
20260506233518 49 0.0 1.0 0.00 0.00 0.00 77 1015.8
20260506232533 50 0.0 1.0 0.00 0.00 0.00 75 1015.8
20260506231534 50 0.0 1.0 0.00 0.00 0.00 74 1015.7
20260506230519 51 0.0 1.0 0.00 0.00 0.00 72 1015.6
20260506225553 52 45 1.0 3.0 0.00 0.00 0.00 72 1015.6
20260506224533 52 68 1.0 2.0 0.00 0.00 0.00 71 1015.7
20260506223533 52 68 1.0 2.0 0.00 0.00 0.00 70 1015.6
20260506222519 53 90 2.0 3.0 0.00 0.00 0.00 69 1015.6
20260506221557 53 68 1.0 2.0 0.00 0.00 0.00 70 1015.5
20260506220519 53 45 1.0 2.0 0.00 0.00 0.00 69 1015.4
20260506215535 53 68 1.0 2.0 0.00 0.00 0.00 69 1015.5
20260506214519 53 45 1.0 3.0 0.00 0.00 0.00 68 1015.5
20260506213518 53 45 1.0 2.0 0.00 0.00 0.00 67 1015.4
20260506212533 53 45 1.0 3.0 0.00 0.00 0.00 67 1015.4
20260506211521 53 45 1.0 2.0 0.00 0.00 0.00 67 1015.4
20260506210536 53 68 1.0 3.0 0.00 0.00 0.00 67 1015.3
20260506205518 53 45 1.0 2.0 0.00 0.00 0.00 66 1015.1
20260506204521 53 0.0 1.0 0.00 0.00 0.00 65 1015.1
20260506203520 54 0.0 1.0 0.00 0.00 0.00 65 1015.0
20260506202519 54 0.0 1.0 0.00 0.00 0.00 64 1014.9
20260506201535 54 0.0 1.0 0.00 0.00 0.00 64 1014.9
20260506200533 54 0.0 1.0 0.00 0.00 0.00 64 1014.7
20260506195535 54 0.0 1.0 0.00 0.00 0.00 63 1014.7
20260506194540 54 0.0 2.0 0.00 0.00 0.00 63 1014.6
20260506193522 54 45 1.0 2.0 0.00 0.00 0.00 62 1014.4
20260506192554 55 68 1.0 3.0 0.00 0.00 0.00 62 1014.4
20260506191519 55 0.0 2.0 0.00 0.00 0.00 61 1014.4
20260506190521 55 45 1.0 4.0 0.00 0.00 0.00 61 1014.3
20260506185520 55 45 2.0 6.0 0.00 0.00 0.00 60 1014.2
20260506184519 55 45 1.0 4.0 0.00 0.00 0.00 61 1014.2
20260506183519 56 45 1.0 4.0 0.00 0.00 0.00 60 1014.1
20260506182535 56 68 2.0 7.0 0.00 0.00 0.00 59 1014.1
20260506181518 56 45 3.0 5.0 0.00 0.00 0.00 59 1013.9
20260506180520 56 68 2.0 5.0 0.00 0.00 0.00 58 1013.9
20260506175518 57 23 2.0 5.0 0.00 0.00 0.00 58 1013.5
20260506174535 57 45 3.0 9.0 0.00 0.00 0.00 55 1013.4
20260506173556 58 315 1.0 4.0 0.00 0.00 0.00 52 1013.3
20260506172520 58 315 1.0 4.0 0.00 0.00 0.00 53 1013.3
20260506171534 58 315 2.0 4.0 0.00 0.00 0.00 52 1013.2
20260506170521 58 315 1.0 4.0 0.00 0.00 0.00 51 1013.3
20260506165541 58 315 1.0 3.0 0.00 0.00 0.00 52 1013.3
20260506164520 58 68 3.0 8.0 0.00 0.00 0.00 52 1013.2
20260506163520 58 68 4.0 8.0 0.00 0.00 0.00 51 1013.3
20260506162545 59 45 3.0 7.0 0.00 0.00 0.00 50 1013.2
20260506161534 59 0 1.0 3.0 0.00 0.00 0.00 48 1013.2
20260506160520 59 113 2.0 8.0 0.00 0.00 0.00 47 1013.3
20260506155520 58 68 5.0 8.0 0.00 0.00 0.00 48 1013.3
20260506154524 59 45 2.0 6.0 0.00 0.00 0.00 47 1013.3
20260506153520 59 45 2.0 6.0 0.00 0.00 0.00 47 1013.3
20260506152521 59 45 3.0 8.0 0.00 0.00 0.00 47 1013.4
20260506151520 60 23 3.0 7.0 0.00 0.00 0.00 45 1013.2
20260506150544 60 315 2.0 5.0 0.00 0.00 0.00 46 1013.3
20260506145520 60 315 2.0 6.0 0.00 0.00 0.00 45 1013.3
20260506144519 60 293 1.0 4.0 0.00 0.00 0.00 46 1013.2
20260506143520 60 315 2.0 4.0 0.00 0.00 0.00 44 1013.3
20260506142519 59 315 2.0 5.0 0.00 0.00 0.00 46 1013.3
20260506141539 60 45 5.0 10.0 0.00 0.00 0.00 46 1013.3
20260506140519 62 315 2.0 7.0 0.00 0.00 0.00 43 1013.2
20260506135558 60 68 2.0 5.0 0.00 0.00 0.00 45 1013.3
20260506134534 60 0 2.0 10.0 0.00 0.00 0.00 46 1013.3
20260506133525 61 68 4.0 14.0 0.00 0.00 0.00 45 1013.3
20260506132534 60 45 3.0 8.0 0.00 0.00 0.00 47 1013.2
20260506131535 59 68 2.0 6.0 0.00 0.00 0.00 46 1013.4
20260506130534 60 68 4.0 9.0 0.00 0.00 0.00 45 1013.3
20260506125559 60 315 2.0 6.0 0.00 0.00 0.00 47 1013.3
20260506124520 60 315 2.0 4.0 0.00 0.00 0.00 47 1013.3
20260506123534 60 338 3.0 10.0 0.00 0.00 0.00 48 1013.3
20260506122534 60 68 3.0 8.0 0.00 0.00 0.00 45 1013.3
20260506121520 59 45 3.0 8.0 0.00 0.00 0.00 46 1013.4
20260506120536 59 45 4.0 8.0 0.00 0.00 0.00 47 1013.5
20260506115520 61 338 2.0 6.0 0.00 0.00 0.00 46 1013.6
20260506114519 60 23 4.0 14.0 0.00 0.00 0.00 46 1013.7
20260506113520 60 45 6.0 12.0 0.00 0.00 0.00 45 1013.6
20260506112549 61 23 3.0 8.0 0.00 0.00 0.00 45 1013.7
20260506111524 61 90 3.0 10.0 0.00 0.00 0.00 44 1013.7
20260506110519 60 68 4.0 9.0 0.00 0.00 0.00 46 1013.7
20260506105521 60 315 2.0 6.0 0.00 0.00 0.00 49 1013.8
20260506104540 58 68 5.0 10.0 0.00 0.00 0.00 51 1013.7
20260506103520 58 68 4.0 8.0 0.00 0.00 0.00 50 1013.8
20260506102519 57 68 5.0 10.0 0.00 0.00 0.00 52 1013.7
20260506100548 57 45 5.0 13.0 0.00 0.00 0.00 49 1013.8
20260506095554 57 45 3.0 7.0 0.00 0.00 0.00 50 1013.8
20260506094519 57 315 3.0 5.0 0.00 0.00 0.00 53 1013.8
20260506093519 57 315 2.0 6.0 0.00 0.00 0.00 54 1013.9
20260506092519 57 90 1.0 4.0 0.00 0.00 0.00 53 1014.0
20260506091601 56 23 3.0 10.0 0.00 0.00 0.00 53 1014.0
20260506090520 56 293 3.0 7.0 0.00 0.00 0.00 55 1014.0
20260506085558 56 23 2.0 6.0 0.00 0.00 0.00 58 1014.0
20260506084520 55 315 2.0 5.0 0.00 0.00 0.00 60 1014.0
20260506083520 55 315 2.0 6.0 0.00 0.00 0.00 60 1014.0
20260506082519 54 45 2.0 7.0 0.00 0.00 0.00 61 1014.1
20260506081521 54 315 2.0 7.0 0.00 0.00 0.00 63 1013.9
20260506080520 54 0 2.0 8.0 0.00 0.00 0.00 63 1013.9
20260506072519 53 45 4.0 11.0 0.00 0.00 0.00 68 1013.6
20260506071519 52 315 3.0 8.0 0.00 0.00 0.00 69 1013.6
20260506070519 51 23 3.0 9.0 0.00 0.00 0.00 70 1013.5